Regional Weather Roundup
Issued by NWS Charleston, WV

Home | Current Version | Previous Version | Graphics & Text | Print | Product List | Glossary On
Versions: 1 2 3 4 5 6 7 8 9 10 11 12 13 14 15 16 17 18 19 20 21 22 23 24 25 26 27 28 29 30 31 32 33 34 35 36 37 38 39 40 41 42 43 44 45 46 47 48 49 50
000
ASUS41 KRLX 311910
RWRRLX
West Virginia Regional Weather Roundup
National Weather Service Charleston WV
300 PM EDT FRI JUL 31 2015

Note: "fair" indicates few or no clouds below 12,000 feet with no
significant weather and/or obstructions to visibility.

WVZ003-312000-
Northern Panhandle of West Virginia

CITY           SKY/WX    TMP DP  RH WIND       PRES   REMARKS
WHEELING       MOSUNNY   85  56  37 W9G20     29.96F
$$

WVZ009-312000-
Northwest West Virginia

CITY           SKY/WX    TMP DP  RH WIND       PRES   REMARKS
PARKERSBURG    MOSUNNY   86  55  34 SW10G17   30.01F
$$

WVZ006-312000-
Western West Virginia

CITY           SKY/WX    TMP DP  RH WIND       PRES   REMARKS
HUNTINGTON     PTSUNNY   85  58  39 W10       30.02F
$$

WVZ015-312000-
West Central West Virginia

CITY           SKY/WX    TMP DP  RH WIND       PRES   REMARKS
CHARLESTON     MOSUNNY   84  58  40 W7        30.02F
$$

WVZ022-031-312000-
North Central West Virginia

CITY           SKY/WX    TMP DP  RH WIND       PRES   REMARKS
CLARKSBURG     MOSUNNY   83  59  44 W7        30.00F
MORGANTOWN     PTSUNNY   86  55  34 VRB6      29.99F
$$

WVZ025-035-042-045-312000-
Southern West Virginia

CITY           SKY/WX    TMP DP  RH WIND       PRES   REMARKS
BECKLEY        MOSUNNY   79  54  41 NW5       30.11S
LOGAN            N/A     81  59  47 VRB5      30.03F
BLUEFIELD      SUNNY     80  53  39 NW8       30.12F
LEWISBURG      MOSUNNY   80  52  37 CALM      30.08F
$$

WVZ047-312000-
Northern Mountains of West Virginia

CITY           SKY/WX    TMP DP  RH WIND       PRES   REMARKS
ELKINS         MOSUNNY   80  55  42 VRB6      30.05F
$$

WVZ052-312000-
Eastern Panhandle of West Virginia

CITY           SKY/WX    TMP DP  RH WIND       PRES   REMARKS
MARTINSBURG    MOSUNNY   86  58  38 MISG      29.94F
PETERSBURG     MOSUNNY  N/A N/A N/A W6        29.97F
$$


USA.gov is the U.S. government's official web portal to all federal, state and local government web resources and services.